Theta_e
309 310 313 311 311 311 311 312 312 312 312 312 312 312 313 314 314 313 316 315 317 309 306 311 312 312 312 316 316 317 320 320 322 324 325 328 332 330 331 332 334 339 337 347 352
308 309 310 313 314 313 313 312 312 312 312 312 312 312 310 312 314 317 317 315 312 311 307 311 312 312 313 316 317 319 319 320 322 323 325 326 329 330 332 331 334 338 333 351 357
308 308 308 308 307 307 307 308 310 312 312 312 312 312 310 311 317 321 317 314 314 311 310 313 313 312 315 316 317 318 319 320 320 321 323 324 327 328 329 334 334 337 332 345 352
305 306 307 307 306 306 306 306 306 307 307 308 309 310 310 312 324 320 318 315 313 314 313 314 312 313 316 317 317 318 318 318 318 319 320 323 325 327 328 332 333 334 331 333 341
303 304 304 306 306 306 306 306 307 308 308 308 308 309 310 317 318 320 315 315 310 313 317 315 314 314 315 317 317 319 319 318 317 318 319 321 324 325 327 327 333 333 331 332 332
302 302 303 303 305 305 305 306 307 307 309 309 310 310 312 317 317 320 318 316 316 317 318 317 317 315 315 316 318 318 318 318 318 318 318 320 322 323 324 326 331 332 333 333 333
301 301 301 301 302 304 305 305 306 307 308 309 309 311 313 317 318 317 317 319 318 319 319 317 316 316 315 316 315 316 318 319 319 318 319 318 319 320 323 326 328 332 332 332 334
300 300 300 301 301 301 303 304 305 306 307 311 314 313 314 317 317 318 318 319 319 320 319 317 314 315 315 315 316 317 317 318 319 319 318 318 319 320 319 325 326 328 331 333 332
300 300 300 300 301 301 301 302 304 306 311 312 312 313 319 317 317 318 318 317 318 319 318 315 313 314 316 316 318 318 317 317 317 319 318 319 318 320 320 321 325 327 329 331 333
301 300 300 300 301 301 301 301 306 311 313 312 314 315 316 319 318 316 316 315 318 318 314 313 313 316 317 317 317 319 318 317 318 319 318 318 318 319 319 321 324 326 327 329 333
301 301 300 301 301 301 301 307 314 314 313 317 318 318 320 319 318 317 315 317 316 315 315 313 316 316 316 317 318 318 319 320 319 319 318 318 318 319 319 320 321 324 327 328 330
301 301 301 301 301 301 302 310 313 317 317 318 318 319 319 320 320 318 316 317 315 316 315 315 316 317 317 317 317 318 319 321 320 320 320 319 319 319 319 320 320 323 325 325 328
301 302 301 302 301 309 312 313 313 314 319 318 318 320 320 319 320 320 317 316 316 316 315 316 316 317 317 318 318 318 319 320 320 320 321 320 320 320 319 319 319 321 321 321 324
301 301 301 301 308 312 308 311 312 316 321 317 320 319 319 320 321 320 317 317 317 316 315 316 318 317 317 318 318 318 319 319 320 321 320 321 320 320 320 321 321 321 321 323 327
301 301 301 301 302 308 309 311 314 318 317 317 321 321 320 321 322 320 319 316 318 317 316 315 316 317 317 317 317 318 320 320 320 320 321 322 321 323 322 321 322 323 324 325 324
300 300 301 304 308 309 310 310 312 319 317 317 321 323 323 322 322 321 320 317 317 319 318 316 316 317 318 317 318 319 320 321 321 320 321 321 323 324 324 325 324 324 324 323 323
300 301 301 304 308 311 311 311 315 315 314 316 318 323 323 323 323 323 323 321 320 320 321 317 317 319 319 319 318 320 321 321 321 321 320 321 323 326 327 326 326 326 326 325 324
300 301 305 309 311 310 312 314 315 312 314 316 317 322 323 324 323 322 324 323 320 320 321 320 320 319 319 319 321 321 321 321 323 321 320 320 322 326 325 323 326 326 326 325 325
300 306 308 310 311 312 313 317 314 314 314 315 316 317 319 324 323 322 324 323 321 320 321 322 321 319 319 319 321 322 321 322 322 325 325 323 325 326 326 327 327 326 326 326 325
303 307 309 311 313 313 315 315 314 314 315 315 316 320 322 321 321 318 322 323 322 321 321 322 323 319 319 319 320 321 323 323 324 329 330 326 325 325 327 327 327 328 326 325 324
305 308 314 314 312 312 316 313 314 314 314 315 316 320 322 323 323 321 320 323 323 321 321 322 323 322 319 319 319 320 323 325 326 325 327 328 328 327 327 327 328 327 325 324 322
304 309 312 312 313 314 316 315 316 318 317 319 318 319 322 321 320 318 323 322 318 322 321 322 324 325 321 319 319 321 323 325 333 329 327 329 330 325 326 327 327 326 324 323 321
305 306 308 309 314 315 315 316 315 318 317 317 318 320 319 321 321 320 318 317 321 324 323 325 324 329 326 326 324 323 323 324 327 329 326 329 330 326 328 327 325 324 322 321 321
305 308 307 312 313 314 315 313 316 314 317 317 318 321 321 320 318 321 319 318 321 324 322 324 324 327 329 325 326 324 323 323 325 326 328 327 326 326 325 325 324 323 322 321 321
304 308 308 313 311 311 313 313 314 317 315 315 319 320 320 321 320 319 315 317 322 323 322 324 326 326 326 325 325 325 323 323 322 321 322 322 326 325 325 323 323 322 322 321 320
305 306 304 307 308 311 313 315 314 314 315 316 318 319 320 316 320 317 314 317 324 324 324 325 326 325 325 323 324 325 324 325 324 323 323 321 325 325 323 323 323 322 321 320 319
304 304 304 305 309 309 312 313 313 314 313 312 315 317 316 314 315 317 314 315 320 324 326 328 326 326 325 324 322 323 324 323 322 321 321 321 321 322 322 322 321 319 318 318 317
Wind_Speed
17 16 15 15 16 15 15 16 18 19 19 20 21 21 22 22 22 23 25 19 10 11 15 8 11 16 17 20 24 25 17 22 29 27 23 27 13 16 24 16 7 3 6 8 7
16 16 16 17 17 18 19 19 19 20 21 22 23 22 22 22 24 28 27 25 20 19 16 14 16 17 22 20 26 21 19 29 23 24 21 27 21 14 19 17 11 9 3 2 7
17 17 17 17 18 19 20 21 22 23 23 24 24 24 21 19 21 26 13 15 13 16 17 15 15 17 22 20 26 25 24 21 26 31 25 27 21 15 25 21 22 14 5 2 4
17 18 19 19 19 20 20 21 22 23 24 24 24 23 20 10 8 1 6 12 8 10 16 15 19 21 20 22 23 24 28 27 27 26 27 21 22 24 25 25 23 14 8 8 7
18 19 20 20 20 21 21 21 20 22 22 23 22 21 16 14 27 20 13 14 9 10 17 18 20 23 21 20 23 21 22 23 25 30 28 19 25 24 28 30 15 19 13 12 13
19 20 21 21 22 22 22 22 22 22 21 21 21 19 12 22 13 17 16 20 16 16 18 20 16 19 21 23 19 23 21 22 24 24 29 23 24 29 33 33 22 23 19 15 13
22 22 22 22 24 24 22 22 23 23 22 21 23 15 19 33 10 12 15 20 19 19 19 19 21 16 21 15 22 20 20 17 21 23 21 28 27 32 29 31 32 20 26 23 14
24 24 24 24 24 25 25 23 24 24 24 18 12 12 16 10 17 18 15 17 18 18 19 14 19 18 21 16 12 16 20 19 20 21 23 22 28 27 38 36 37 30 26 30 23
26 25 25 25 25 25 25 25 24 23 13 6 7 13 13 6 24 26 25 21 17 16 15 15 20 20 20 16 16 17 17 22 20 20 20 25 31 25 32 35 31 37 28 32 24
28 27 27 28 26 26 27 27 17 4 1 6 4 9 18 16 15 22 24 25 20 17 14 18 18 17 17 16 17 17 19 16 19 18 22 26 27 25 34 31 36 36 34 31 34
30 28 26 28 28 28 28 18 6 6 14 14 15 14 9 9 10 18 26 25 22 22 17 27 17 20 24 23 20 17 14 19 14 17 19 22 25 23 28 30 38 35 31 32 35
31 29 29 28 27 28 21 7 11 13 20 26 31 31 29 8 14 20 27 23 21 21 23 15 23 23 21 20 20 19 16 14 14 13 18 21 24 23 24 27 39 29 28 33 32
29 30 27 27 24 18 7 15 15 16 12 26 33 38 36 30 24 28 35 34 23 25 25 20 19 22 18 17 19 19 19 15 16 11 14 17 23 20 22 30 38 36 35 42 33
30 30 29 28 11 8 20 11 7 8 9 20 24 24 38 29 33 27 39 34 17 24 25 23 21 20 21 22 20 20 18 16 17 16 14 6 13 21 24 24 26 32 34 28 28
33 33 28 23 25 15 9 6 8 4 8 11 17 2 16 35 12 37 36 37 23 21 19 22 21 19 21 21 20 18 17 19 16 17 18 7 6 22 12 23 25 19 27 29 25
34 32 28 24 18 24 15 8 5 8 14 9 9 13 18 30 36 33 36 38 30 22 21 22 22 21 17 20 20 20 17 15 15 15 15 21 7 9 7 13 18 21 19 4 13
31 30 30 21 18 5 11 11 9 11 9 19 17 17 16 17 27 25 33 29 26 23 23 21 23 18 18 18 23 19 16 12 13 14 15 19 15 8 5 11 18 17 9 5 5
32 31 25 17 17 16 10 12 19 14 26 27 16 18 11 7 19 26 29 27 31 26 14 20 21 21 17 23 20 20 20 15 20 13 15 17 12 10 18 16 15 15 14 12 12
34 24 22 15 15 15 18 14 21 22 25 26 23 18 22 7 9 15 16 27 30 30 23 16 21 23 19 17 20 18 20 23 18 12 7 9 14 11 14 16 16 19 18 16 16
31 27 23 9 10 15 12 22 27 26 24 25 18 20 14 7 8 6 8 16 23 32 24 14 12 16 23 18 19 17 15 13 12 9 11 7 7 5 21 19 18 16 19 18 18
22 15 2 6 10 10 12 21 24 27 25 24 19 19 10 1 6 12 9 17 28 31 23 17 13 17 14 21 21 18 11 11 16 8 11 6 5 8 12 20 19 18 20 19 17
15 8 3 5 4 6 12 21 15 19 17 9 10 16 17 4 5 5 6 9 40 25 27 24 9 12 19 17 21 18 11 13 10 7 10 10 4 10 18 18 18 21 20 18 17
13 28 15 21 7 11 10 18 11 14 10 9 12 16 10 14 7 11 10 15 31 17 27 21 8 10 6 9 9 14 12 8 4 5 10 7 3 8 15 14 16 19 18 16 15
12 8 21 7 10 14 13 15 12 8 10 10 7 15 4 7 5 4 6 5 20 30 24 15 13 17 9 6 16 19 17 13 8 4 10 4 1 11 7 9 13 15 13 13 11
8 7 15 7 14 17 16 14 14 10 9 3 10 8 8 6 11 4 2 7 23 3 15 15 12 10 9 4 4 11 16 11 14 12 10 5 14 17 14 6 7 12 7 7 6
8 6 8 24 21 20 15 12 8 11 10 11 9 6 6 5 6 6 6 9 10 12 17 8 10 13 8 8 10 9 12 17 15 13 13 8 9 12 4 15 6 6 3 2 4
19 19 12 13 13 13 12 18 19 11 7 6 10 5 8 6 8 5 6 6 6 9 12 15 11 11 10 11 8 4 9 10 6 4 4 7 3 13 11 3 5 1 2 2 6
Wind_Direction
325 320 312 314 313 311 308 308 307 306 306 306 307 307 304 304 300 292 268 250 227 243 228 214 228 217 215 227 223 220 241 239 241 238 248 253 199 216 229 254 234 202 327 285 273
330 324 316 312 310 308 306 303 300 299 300 300 303 305 308 310 303 280 279 260 248 242 223 216 216 207 211 219 219 223 229 238 242 252 257 256 250 220 232 205 205 206 14 253 131
330 328 323 317 313 309 307 302 298 295 294 295 296 300 307 318 305 274 262 232 220 217 209 218 230 214 222 220 218 214 241 242 242 258 254 266 245 226 235 208 218 208 123 122 103
323 321 318 314 311 309 306 303 300 295 293 292 291 295 301 306 267 161 182 155 158 180 197 216 224 217 229 226 224 228 236 241 258 259 246 263 269 254 241 243 229 174 167 107 130
323 321 315 312 310 307 307 306 302 296 291 291 290 291 299 257 248 273 259 216 216 190 196 205 218 221 226 229 231 237 246 244 244 247 252 250 244 252 254 247 210 191 174 143 123
326 318 314 311 307 306 309 309 307 298 292 289 287 285 274 260 263 232 234 236 219 199 211 209 223 228 239 242 240 235 243 248 255 235 241 243 239 241 243 247 213 201 201 199 193
328 324 319 313 309 307 307 306 306 303 298 287 280 267 252 241 233 235 219 219 208 210 212 225 228 244 232 245 246 249 258 231 240 249 236 237 239 244 244 242 243 223 218 214 205
330 326 321 318 315 311 309 307 305 303 300 288 257 226 250 248 233 215 204 204 204 211 218 229 220 238 230 236 237 242 238 246 234 231 238 252 249 232 239 236 243 241 226 237 200
325 324 322 317 315 310 307 306 307 303 296 297 186 201 260 247 222 214 206 205 210 214 222 220 213 225 221 229 236 228 235 231 246 236 220 226 247 252 248 228 240 239 236 236 217
325 323 321 318 316 312 309 312 315 291 234 169 248 211 247 236 226 205 204 209 203 197 199 198 203 217 222 213 226 229 220 238 255 220 234 237 243 244 247 245 242 231 241 238 228
325 324 322 319 321 318 315 321 269 231 205 213 207 229 279 210 175 194 187 184 193 193 193 198 207 209 210 217 233 266 241 240 242 251 241 246 239 249 239 238 244 241 230 231 236
320 319 320 319 323 316 307 252 275 298 292 247 248 243 252 240 204 186 181 180 198 201 207 181 216 216 226 209 228 242 251 255 259 252 246 247 246 243 246 236 242 233 239 242 235
315 313 315 315 326 318 275 269 282 293 271 269 243 233 231 217 220 188 186 198 193 207 202 207 213 225 210 217 216 224 238 244 260 260 270 257 263 238 233 240 237 225 230 241 232
316 315 320 318 335 295 300 307 295 282 277 272 214 242 224 215 224 207 197 198 197 212 214 221 226 195 215 218 214 219 220 247 262 271 266 292 278 226 230 229 229 230 226 229 233
323 322 322 317 300 294 277 302 290 214 276 322 138 190 209 201 179 215 193 206 211 211 215 210 225 206 211 214 217 230 224 219 233 254 268 240 232 281 252 218 218 208 219 221 231
324 319 317 313 282 279 266 262 263 237 250 261 179 192 212 203 227 193 189 211 219 219 208 226 206 228 215 214 220 219 237 249 232 237 248 255 183 249 252 297 217 194 203 225 249
320 314 307 287 267 272 241 212 228 234 278 250 254 213 228 190 214 225 189 196 212 215 213 205 224 211 210 209 208 216 222 224 227 231 238 252 197 146 127 312 240 116 122 145 159
320 317 311 275 266 244 207 221 244 249 240 259 276 287 162 316 208 227 198 195 212 216 211 199 208 200 198 216 210 208 215 225 215 220 228 213 261 143 166 215 111 107 114 118 113
323 322 302 283 239 221 219 228 246 250 262 277 284 281 271 159 139 4 237 206 202 215 219 214 215 195 207 219 228 205 217 234 255 304 252 267 152 152 146 146 133 127 121 117 113
323 315 294 235 220 208 229 250 266 271 263 270 270 292 253 269 157 170 288 243 234 208 223 213 237 200 196 201 230 240 245 247 242 199 276 225 312 166 163 154 138 134 125 123 121
329 307 276 187 187 213 237 250 254 255 255 275 268 241 278 233 222 182 212 278 231 208 200 211 228 209 184 205 215 223 182 253 265 290 252 149 232 256 266 149 146 135 133 134 129
318 289 231 227 227 233 244 267 321 291 290 282 283 265 273 185 189 232 241 239 303 192 197 199 233 184 205 197 219 253 276 192 234 252 278 292 140 141 299 135 131 132 133 130 125
295 291 278 229 258 266 270 270 288 261 294 310 267 280 138 192 215 218 236 254 271 277 195 189 205 174 207 289 215 219 220 266 48 333 195 258 75 158 189 119 130 123 126 132 125
296 297 316 232 274 303 312 309 287 309 278 273 248 282 192 176 224 269 256 330 287 261 187 195 212 196 206 186 196 205 207 206 151 86 260 208 61 325 24 115 123 130 140 136 122
283 300 349 321 321 310 303 288 317 359 326 24 269 250 199 231 202 198 191 247 266 173 148 167 205 183 129 203 136 266 201 212 231 229 244 300 189 206 201 193 195 134 153 138 134
297 332 307 298 321 330 319 306 343 336 324 334 314 40 231 176 222 163 191 226 186 164 174 166 202 206 171 152 107 271 203 181 215 202 217 137 129 147 186 199 159 160 153 202 157
325 318 309 308 327 325 313 335 322 10 19 286 304 350 38 24 350 168 164 274 293 137 177 196 150 158 182 198 194 229 181 191 195 229 236 228 12 133 138 193 170 173 95 355 49